Weather History for Houma, LA

Change the Weather History Date:

Wednesday, December 18, 2013

  Actual Average Record
Temperature  
Mean Temperature 50 °F -  
Max Temperature 68 °F 64 °F 82 °F (1971)
Min Temperature 33 °F 41 °F 24 °F (1943)
Degree Days  
Heating Degree Days 14    
Moisture  
Dew Point 38 °F    
Average Humidity 81    
Maximum Humidity 95    
Minimum Humidity 30    
Precipitation  
Precipitation 0.00 in - - ()
Sea Level Pressure  
Sea Level Pressure 30.29 in    
Wind  
Wind Speed 2 mph (ENE)    
Max Wind Speed 7 mph    
Max Gust Speed -    
Visibility 6 miles    
Events Snow    
Averages and records for this station are not official NWS values.
T = Trace of Precipitation, MM = Missing Value Source: NWS Daily Summary

Daily Weather History Graph

Daily Weather History Graph

Search for Another Location

Airport:

Trip Planner

Search our weather history database for the weather conditions in past years. The results will help you decide how hot, cold, wet, or windy it might be!

Date:

Astronomy

Dec. 18, 2013 Rise Set
Actual Time 6:51 AM CST 5:07 PM CST
Civil Twilight 6:25 AM CST 5:33 PM CST
Nautical Twilight 5:55 AM CST 6:03 PM CST
Astronomical Twilight 5:26 AM CST 6:32 PM CST
Moon 6:32 PM CST (12/18) 7:37 AM CST (12/18)
Length of Visible Light 11h 07m
Length of Day
10h 15m
Full, 98% of the Moon is Illuminated
Dec 18
Full
Dec 25
Last Quarter
Jan 1
New
Jan 7
First Quarter
Jan 15
Full

Hourly Weather History & Observations

Time (CST) Temp. Windchill Dew Point Humidity Pressure Visibility Wind Dir Wind Speed Gust Speed Precip Events Conditions
12:15 AM 36.9 °F - 34.5 °F 91% 30.31 in 0.2 mi Calm Calm - N/A Snow Light Snow
12:35 AM 37.0 °F - 35.1 °F 93% 30.31 in 0.2 mi Calm Calm - N/A Snow Light Snow
12:55 AM 34.7 °F - 32.5 °F 92% 30.31 in 0.2 mi Calm Calm - N/A Snow Light Snow
1:15 AM 34.9 °F - 32.7 °F 92% 30.31 in 0.2 mi Calm Calm - N/A Snow Light Snow
1:35 AM 34.7 °F - 32.7 °F 92% 30.30 in 0.2 mi Calm Calm - N/A Snow Light Snow
1:55 AM 34.7 °F - 32.7 °F 92% 30.30 in 5.0 mi Calm Calm - N/A   Scattered Clouds
2:15 AM 34.2 °F - 32.2 °F 92% 30.30 in 0.5 mi Calm Calm - N/A Snow Light Snow
2:35 AM 34.2 °F - 32.2 °F 92% 30.30 in 0.5 mi Calm Calm - N/A Snow Light Snow
2:55 AM 33.8 °F - 32.0 °F 93% 30.30 in 0.5 mi Calm Calm - N/A Snow Light Snow
3:15 AM 34.5 °F - 32.5 °F 92% 30.30 in 0.5 mi Calm Calm - N/A Snow Light Snow
3:35 AM 33.8 °F - 32.0 °F 93% 30.30 in 1.8 mi Calm Calm - N/A   Mist
3:55 AM 33.1 °F - 31.8 °F 95% 30.30 in 0.5 mi Calm Calm - N/A Snow Light Snow
4:15 AM 33.8 °F - 32.0 °F 93% 30.30 in 0.5 mi Calm Calm - N/A Snow Light Snow
4:35 AM 33.1 °F - 31.6 °F 94% 30.30 in 10.0 mi Calm Calm - N/A   Scattered Clouds
4:55 AM 33.4 °F - 32.0 °F 94% 30.30 in 0.8 mi Calm Calm - N/A Snow Light Snow
5:48 AM 33.8 °F 29.6 °F 32.0 °F 93% 30.32 in 3.0 mi NNW 4.6 mph - N/A   Clear
6:50 AM 35.6 °F 32.8 °F 32.0 °F 87% 30.34 in 4.0 mi North 3.5 mph - N/A   Clear
7:50 AM 41.0 °F 38.0 °F 39.2 °F 93% 30.35 in 5.0 mi North 4.6 mph - N/A   Clear
8:48 AM 51.8 °F - 44.6 °F 76% 30.37 in 5.0 mi North 3.5 mph - N/A   Clear
9:51 AM 57.2 °F - 42.8 °F 59% 30.38 in 7.0 mi North 4.6 mph - N/A   Clear
10:48 AM 62.6 °F - 35.6 °F 37% 30.37 in 7.0 mi ENE 4.6 mph - N/A   Clear
11:50 AM 66.2 °F - 37.4 °F 35% 30.34 in 7.0 mi ENE 4.6 mph - N/A   Clear
12:50 PM 68.0 °F - 35.6 °F 30% 30.30 in 7.0 mi East 4.6 mph - N/A   Clear
1:50 PM 68.0 °F - 39.2 °F 35% 30.28 in 7.0 mi ENE 6.9 mph - N/A   Clear
2:50 PM 68.0 °F - 37.4 °F 33% 30.27 in 7.0 mi East 5.8 mph - N/A   Clear
3:50 PM 66.2 °F - 39.2 °F 37% 30.27 in 7.0 mi East 5.8 mph - N/A   Clear
4:50 PM 60.8 °F - 42.8 °F 52% 30.27 in 7.0 mi East 3.5 mph - N/A   Clear
6:15 PM 50.0 °F - 42.8 °F 76% 30.26 in 7.0 mi East 3.5 mph - N/A   Clear
6:35 PM 46.6 °F - 41.4 °F 82% 30.26 in 7.0 mi Calm Calm - N/A   Clear
6:50 PM 44.6 °F 43.1 °F 39.2 °F 81% 30.27 in 7.0 mi East 3.5 mph - N/A   Clear
6:55 PM 44.4 °F - 39.9 °F 84% 30.26 in 10.0 mi Calm Calm - N/A   Clear
7:15 PM 43.5 °F 41.9 °F 39.6 °F 86% 30.27 in 10.0 mi ENE 3.5 mph - N/A   Clear
7:35 PM 43.3 °F 41.7 °F 40.1 °F 88% 30.27 in 10.0 mi East 3.5 mph - N/A   Clear
7:55 PM 44.1 °F 41.5 °F 40.3 °F 87% 30.26 in 10.0 mi East 4.6 mph - N/A   Clear
8:15 PM 42.6 °F 40.9 °F 39.2 °F 88% 30.26 in 10.0 mi East 3.5 mph - N/A   Clear
8:35 PM 45.9 °F 44.6 °F 42.4 °F 88% 30.25 in 10.0 mi East 3.5 mph - N/A   Clear
8:55 PM 45.3 °F 44.0 °F 41.7 °F 87% 30.25 in 10.0 mi East 3.5 mph - N/A   Clear
9:15 PM 45.5 °F - 41.5 °F 86% 30.25 in 10.0 mi Calm Calm - N/A   Clear
9:35 PM 45.5 °F 44.2 °F 41.7 °F 87% 30.25 in 10.0 mi ENE 3.5 mph - N/A   Clear
9:55 PM 45.7 °F 44.4 °F 42.1 °F 87% 30.25 in 10.0 mi ENE 3.5 mph - N/A   Clear
10:15 PM 46.0 °F 43.9 °F 42.6 °F 88% 30.24 in 10.0 mi ENE 4.6 mph - N/A   Clear
10:35 PM 46.2 °F 45.0 °F 42.6 °F 87% 30.24 in 10.0 mi East 3.5 mph - N/A   Clear
10:55 PM 45.3 °F 44.0 °F 42.4 °F 90% 30.23 in 10.0 mi ENE 3.5 mph - N/A   Clear
11:15 PM 46.9 °F - 44.6 °F 92% 30.23 in 7.0 mi Calm Calm - N/A   Clear
11:35 PM 46.4 °F - 44.2 °F 92% 30.23 in 7.0 mi Calm Calm - N/A   Clear
11:55 PM 46.9 °F - 44.6 °F 92% 30.22 in 10.0 mi Calm Calm - N/A   Scattered Clouds